When you browse on this site, cookies collect data to enhance your experience and personalize the content and advertising you see.
Visit our Privacy Policy to learn more. By continuing to use the site, you agree to this use of cookies and data.
EN

Hourly Weather Ali Sabieh

Today, 3 July, Friday

Time Temperature Precipitation Wind Pressure Humidity
00:00 +33°C° 0 mm 3 mps 693 mmHg 39%
01:00 +33°C° 0 mm 4 mps 692 mmHg 39%
02:00 +32°C° 0 mm 4 mps 692 mmHg 38%
03:00 +32°C° 0 mm 5 mps 691 mmHg 38%
04:00 +32°C° 0 mm 6 mps 692 mmHg 40%
05:00 +30°C° 0 mm 7 mps 692 mmHg 41%
06:00 +29°C° 0 mm 7 mps 692 mmHg 43%
07:00 +32°C° 0 mm 8 mps 693 mmHg 39%
08:00 +34°C° 0 mm 9 mps 693 mmHg 35%
09:00 +37°C° 0 mm 10 mps 694 mmHg 31%
10:00 +38°C° 0 mm 9 mps 694 mmHg 27%
11:00 +40°C° 0 mm 8 mps 694 mmHg 23%
12:00 +43°C° 0 mm 7 mps 694 mmHg 19%
13:00 +42°C° 0 mm 6 mps 693 mmHg 18%
14:00 +43°C° 0 mm 5 mps 693 mmHg 17%
15:00 +43°C° 0 mm 5 mps 692 mmHg 16%
16:00 +42°C° 0 mm 5 mps 692 mmHg 18%
17:00 +41°C° 0 mm 6 mps 692 mmHg 20%
18:00 +40°C° 0 mm 6 mps 692 mmHg 23%
19:00 +39°C° 0 mm 5 mps 692 mmHg 26%
20:00 +36°C° 0 mm 3 mps 692 mmHg 29%
21:00 +35°C° 0 mm 2 mps 692 mmHg 31%
22:00 +34°C° 0 mm 2 mps 692 mmHg 32%
23:00 +33°C° 0 mm 1 mps 692 mmHg 33%

Tomorrow, 4 July, Saturday

Time Temperature Precipitation Wind Pressure Humidity
00:00 +32°C° 0 mm 1 mps 692 mmHg 34%
01:00 +32°C° 0 mm 1 mps 692 mmHg 33%
02:00 +31°C° 0 mm 2 mps 692 mmHg 32%
03:00 +31°C° 0 mm 2 mps 692 mmHg 31%
04:00 +32°C° 0 mm 4 mps 692 mmHg 34%
05:00 +30°C° 0 mm 5 mps 693 mmHg 38%
06:00 +29°C° 0 mm 7 mps 693 mmHg 42%
07:00 +32°C° 0 mm 8 mps 694 mmHg 38%
08:00 +34°C° 0 mm 9 mps 694 mmHg 33%
09:00 +37°C° 0 mm 10 mps 694 mmHg 29%
10:00 +39°C° 0 mm 9 mps 694 mmHg 26%
11:00 +40°C° 0 mm 8 mps 694 mmHg 23%
12:00 +41°C° 0 mm 7 mps 694 mmHg 20%
13:00 +42°C° 0 mm 6 mps 693 mmHg 19%
14:00 +42°C° 0 mm 5 mps 692 mmHg 17%
15:00 +43°C° 0 mm 5 mps 692 mmHg 16%
16:00 +41°C° 0 mm 5 mps 692 mmHg 19%
17:00 +40°C° 0 mm 5 mps 692 mmHg 22%
18:00 +37°C° 0 mm 4 mps 692 mmHg 25%
19:00 +36°C° 0 mm 5 mps 692 mmHg 26%
20:00 +35°C° 0 mm 6 mps 693 mmHg 28%
21:00 +34°C° 0 mm 6 mps 693 mmHg 29%
22:00 +34°C° 0 mm 6 mps 693 mmHg 30%
23:00 +33°C° 0 mm 6 mps 693 mmHg 31%

Day after tomorrow, 5 July, Sunday

Time Temperature Precipitation Wind Pressure Humidity
00:00 +33°C° 0 mm 6 mps 693 mmHg 32%
01:00 +30°C° 0.2 mm 5 mps 693 mmHg 38%
02:00 +29°C° 0.2 mm 4 mps 693 mmHg 44%
03:00 +27°C° 0.2 mm 3 mps 693 mmHg 49%
04:00 +27°C° 0.2 mm 5 mps 693 mmHg 50%
05:00 +26°C° 0.2 mm 7 mps 693 mmHg 51%
06:00 +26°C° 0.2 mm 9 mps 694 mmHg 52%
07:00 +26°C° 0 mm 9 mps 694 mmHg 50%
08:00 +27°C° 0 mm 9 mps 694 mmHg 48%
09:00 +28°C° 0 mm 9 mps 695 mmHg 46%
10:00 +28°C° 0.1 mm 9 mps 694 mmHg 46%
11:00 +28°C° 0.1 mm 9 mps 694 mmHg 47%
12:00 +27°C° 0.1 mm 9 mps 693 mmHg 48%
13:00 +28°C° 0 mm 8 mps 693 mmHg 47%
14:00 +28°C° 0 mm 8 mps 693 mmHg 46%
15:00 +29°C° 0 mm 7 mps 692 mmHg 45%
16:00 +29°C° 0 mm 7 mps 692 mmHg 45%
17:00 +29°C° 0 mm 7 mps 692 mmHg 45%
18:00 +29°C° 0 mm 6 mps 692 mmHg 45%
19:00 +29°C° 0 mm 6 mps 692 mmHg 45%
20:00 +29°C° 0 mm 7 mps 692 mmHg 45%
21:00 +29°C° 0 mm 7 mps 693 mmHg 45%
22:00 +29°C° 0 mm 7 mps 692 mmHg 44%
23:00 +29°C° 0 mm 8 mps 692 mmHg 43%

6 July, Monday

Time Temperature Precipitation Wind Pressure Humidity
00:00 +29°C° 0 mm 8 mps 692 mmHg 43%
01:00 +29°C° 0.1 mm 8 mps 692 mmHg 43%
02:00 +29°C° 0.1 mm 7 mps 692 mmHg 43%
03:00 +29°C° 0.1 mm 7 mps 692 mmHg 44%
04:00 +29°C° 0 mm 7 mps 692 mmHg 44%
05:00 +29°C° 0 mm 7 mps 692 mmHg 43%
06:00 +28°C° 0 mm 7 mps 692 mmHg 43%
07:00 +29°C° 0.1 mm 8 mps 692 mmHg 41%
08:00 +31°C° 0.1 mm 9 mps 693 mmHg 39%
09:00 +32°C° 0.1 mm 10 mps 693 mmHg 37%
10:00 +33°C° 0 mm 10 mps 693 mmHg 34%
11:00 +34°C° 0 mm 10 mps 693 mmHg 31%
12:00 +36°C° 0 mm 10 mps 693 mmHg 28%
13:00 +37°C° 0 mm 9 mps 693 mmHg 27%
14:00 +37°C° 0 mm 9 mps 692 mmHg 27%
15:00 +38°C° 0 mm 8 mps 692 mmHg 26%
16:00 +36°C° 0 mm 7 mps 692 mmHg 27%
17:00 +35°C° 0 mm 7 mps 692 mmHg 28%
18:00 +35°C° 0 mm 6 mps 691 mmHg 29%
19:00 +34°C° 0 mm 6 mps 692 mmHg 31%
20:00 +33°C° 0 mm 6 mps 692 mmHg 33%
21:00 +32°C° 0 mm 6 mps 693 mmHg 35%
22:00 +32°C° 0 mm 5 mps 693 mmHg 36%
23:00 +32°C° 0 mm 5 mps 693 mmHg 37%

7 July, Tuesday

Time Temperature Precipitation Wind Pressure Humidity
00:00 +30°C° 0 mm 5 mps 693 mmHg 38%
01:00 +30°C° 0 mm 4 mps 692 mmHg 40%
02:00 +30°C° 0 mm 4 mps 692 mmHg 42%
03:00 +29°C° 0 mm 4 mps 692 mmHg 44%
04:00 +29°C° 0 mm 4 mps 692 mmHg 44%
05:00 +28°C° 0 mm 4 mps 692 mmHg 45%
06:00 +28°C° 0 mm 4 mps 692 mmHg 46%
07:00 +30°C° 0 mm 5 mps 693 mmHg 41%
08:00 +33°C° 0 mm 7 mps 694 mmHg 36%
09:00 +34°C° 0 mm 8 mps 694 mmHg 31%
10:00 +36°C° 0 mm 7 mps 694 mmHg 28%
11:00 +38°C° 0 mm 7 mps 694 mmHg 25%
12:00 +40°C° 0 mm 6 mps 694 mmHg 22%
13:00 +40°C° 0 mm 6 mps 693 mmHg 21%
14:00 +41°C° 0 mm 6 mps 693 mmHg 20%
15:00 +41°C° 0 mm 5 mps 692 mmHg 19%
16:00 +41°C° 0 mm 4 mps 692 mmHg 20%
17:00 +40°C° 0 mm 4 mps 692 mmHg 21%
18:00 +39°C° 0 mm 3 mps 692 mmHg 21%
19:00 +38°C° 0 mm 2 mps 692 mmHg 24%
20:00 +36°C° 0 mm 2 mps 692 mmHg 27%
21:00 +35°C° 0 mm 2 mps 693 mmHg 30%
22:00 +35°C° 0 mm 2 mps 692 mmHg 31%
23:00 +33°C° 0 mm 1 mps 692 mmHg 32%

8 July, Wednesday

Time Temperature Precipitation Wind Pressure Humidity
00:00 +32°C° 0 mm 1 mps 692 mmHg 33%
01:00 +32°C° 0 mm 1 mps 692 mmHg 35%
02:00 +31°C° 0 mm 1 mps 692 mmHg 36%
03:00 +29°C° 0 mm 0 mps 692 mmHg 38%
04:00 +31°C° 0 mm 1 mps 692 mmHg 38%
05:00 +30°C° 0 mm 3 mps 692 mmHg 38%
06:00 +30°C° 0 mm 4 mps 693 mmHg 38%
07:00 +33°C° 0 mm 5 mps 693 mmHg 35%
08:00 +35°C° 0 mm 6 mps 694 mmHg 32%
09:00 +36°C° 0 mm 7 mps 694 mmHg 29%
10:00 +39°C° 0 mm 7 mps 694 mmHg 26%
11:00 +40°C° 0 mm 6 mps 694 mmHg 23%
12:00 +41°C° 0 mm 6 mps 694 mmHg 19%
13:00 +42°C° 0 mm 6 mps 693 mmHg 19%
14:00 +42°C° 0 mm 5 mps 693 mmHg 18%
15:00 +43°C° 0 mm 5 mps 692 mmHg 17%
16:00 +42°C° 0 mm 6 mps 692 mmHg 19%
17:00 +41°C° 0 mm 7 mps 692 mmHg 20%
18:00 +40°C° 0 mm 7 mps 692 mmHg 22%
19:00 +39°C° 0 mm 6 mps 692 mmHg 24%
20:00 +37°C° 0 mm 5 mps 692 mmHg 26%
21:00 +35°C° 0 mm 3 mps 693 mmHg 28%
22:00 +35°C° 0 mm 3 mps 693 mmHg 30%
23:00 +34°C° 0 mm 2 mps 693 mmHg 32%
Show more